Atlanta, GA

2:23 AM EST on December 07, 2019 (GMT -0500)
The Hartsfield Atlanta International

Weather History for KATL - October, 2019

Change the Weather History Date:

Sunday, October 20, 2019

  Actual Average Record
Temperature  
Mean Temperature 65 °F 62 °F  
Max Temperature 73 °F 72 °F 88 °F (2016)
Min Temperature 57 °F 53 °F 34 °F (1972)
Degree Days  
Heating Degree Days 0 4  
Month to date heating degree days 28 53  
Since 1 July heating degree days 28 64  
Cooling Degree Days 0 2  
Month to date cooling degree days 149 56  
Year to date cooling degree days 2626 1861  
Growing Degree Days 15 (Base 50)    
Moisture  
Dew Point 57 °F    
Average Humidity 82    
Maximum Humidity 93    
Minimum Humidity 64    
Precipitation  
Precipitation T in 0.10 in 1.45 in (1970)
Month to date precipitation 2.19 2.32  
Year to date precipitation 34.52 40.62  
Sea Level Pressure  
Sea Level Pressure 29.88 in    
Wind  
Wind Speed 8 mph ()    
Max Wind Speed 16 mph    
Max Gust Speed 23 mph    
Visibility 7.3 miles    
Events      
T = Trace of Precipitation, MM = Missing Value Source: Averaged Metar Reports

Daily Weather History Graph

Daily Weather History Graph

Search for Another Location

Airport or City:

Astronomy

Oct. 20, 2019 Rise Set
Actual Time 7:46 AM EDT 6:58 PM EDT
Civil Twilight 7:21 AM EDT 7:23 PM EDT
Nautical Twilight 6:52 AM EDT 7:52 PM EDT
Astronomical Twilight 6:23 AM EDT 8:21 PM EDT
Moon No Moon Rise 2:02 PM EDT (10/20)
Length of Visible Light 12h 02m
Length of Day
11h 11m
Waning Gibbous, 59% of the Moon is Illuminated
Oct 20
Waning Gibbous
Oct 21
Last Quarter
Oct 27
New
Nov 4
First Quarter
Nov 12
Full

Hourly Weather History & Observations

Time (EDT) Temp. Dew Point Humidity Pressure Visibility Wind Dir Wind Speed Gust Speed Precip Events Conditions
12:52 AM 57.0 °F 53.1 °F 87% 29.74 in 9.0 mi NNE 11.5 mph - 0.00 in   Overcast
1:52 AM 57.0 °F 54.0 °F 89% 29.75 in 9.0 mi North 9.2 mph - N/A   Overcast
2:52 AM 57.0 °F 54.0 °F 89% 29.76 in 9.0 mi NNW 8.1 mph - N/A   Overcast
3:41 AM 57.0 °F 55.0 °F 93% 29.77 in 2.0 mi NW 6.9 mph - 0.00 in   Light Drizzle
3:52 AM 57.0 °F 55.0 °F 93% 29.77 in 2.0 mi NW 8.1 mph - 0.00 in   Light Drizzle
3:58 AM 57.0 °F 55.0 °F 93% 29.77 in 3.0 mi NW 9.2 mph - 0.00 in   Light Drizzle
4:52 AM 57.9 °F 55.0 °F 90% 29.77 in 8.0 mi NNW 8.1 mph - 0.00 in   Overcast
5:52 AM 57.9 °F 55.9 °F 93% 29.80 in 8.0 mi WNW 8.1 mph - N/A   Overcast
6:19 AM 57.9 °F 55.9 °F 93% 29.83 in 0.5 mi West 8.1 mph - N/A   Overcast
6:52 AM 57.9 °F 55.9 °F 93% 29.83 in 0.5 mi WNW 8.1 mph - N/A   Overcast
7:52 AM 57.9 °F 55.9 °F 93% 29.85 in 0.5 mi WNW 9.2 mph - 0.00 in   Overcast
8:07 AM 57.9 °F 55.9 °F 93% 29.86 in 1.0 mi WNW 5.8 mph - N/A   Overcast
8:52 AM 59.0 °F 55.9 °F 90% 29.88 in 1.0 mi WNW 10.4 mph - 0.00 in   Light Drizzle
9:11 AM 59.0 °F 55.9 °F 90% 29.89 in 4.0 mi WNW 11.5 mph - 0.00 in   Overcast
9:46 AM 60.8 °F 57.2 °F 88% 29.91 in 6.0 mi NW 11.5 mph 20.7 mph 0.00 in   Overcast
9:52 AM 60.1 °F 57.0 °F 90% 29.91 in 6.0 mi NW 10.4 mph - 0.00 in   Overcast
10:52 AM 62.1 °F 57.0 °F 84% 29.92 in 10.0 mi NNW 13.8 mph - N/A   Overcast
11:35 AM 63.0 °F 57.0 °F 81% 29.93 in 10.0 mi NW 11.5 mph - N/A   Overcast
11:52 AM 64.9 °F 57.9 °F 78% 29.93 in 10.0 mi NW 11.5 mph 21.9 mph N/A   Overcast
12:52 PM 66.9 °F 57.9 °F 73% 29.94 in 10.0 mi NW 10.4 mph - N/A   Mostly Cloudy
1:31 PM 69.1 °F 59.0 °F 70% 29.94 in 10.0 mi NW 12.7 mph - N/A   Mostly Cloudy
1:52 PM 69.1 °F 59.0 °F 70% 29.93 in 10.0 mi NW 11.5 mph - N/A   Mostly Cloudy
2:26 PM 70.0 °F 59.0 °F 68% 29.93 in 10.0 mi NW 12.7 mph - N/A   Scattered Clouds
2:52 PM 69.1 °F 59.0 °F 70% 29.91 in 10.0 mi NNW 11.5 mph 18.4 mph N/A   Scattered Clouds
3:52 PM 71.1 °F 59.0 °F 66% 29.91 in 10.0 mi NW 8.1 mph - N/A   Scattered Clouds
4:52 PM 72.0 °F 59.0 °F 64% 29.93 in 10.0 mi NW 9.2 mph - N/A   Scattered Clouds
5:52 PM 72.0 °F 60.1 °F 66% 29.93 in 10.0 mi WNW 8.1 mph - N/A   Scattered Clouds
6:52 PM 69.1 °F 59.0 °F 70% 29.94 in 10.0 mi NNW 8.1 mph - N/A   Scattered Clouds
7:52 PM 66.9 °F 59.0 °F 76% 29.94 in 10.0 mi NW 5.8 mph - N/A   Scattered Clouds
8:52 PM 66.9 °F 59.0 °F 76% 29.95 in 10.0 mi NW 6.9 mph - N/A   Scattered Clouds
9:52 PM 66.0 °F 59.0 °F 78% 29.96 in 10.0 mi NW 5.8 mph - N/A   Scattered Clouds
10:52 PM 64.9 °F 59.0 °F 81% 29.97 in 10.0 mi NNW 9.2 mph - N/A   Scattered Clouds
11:52 PM 63.0 °F 57.9 °F 84% 29.98 in 10.0 mi Calm Calm - N/A   Scattered Clouds